Harrison, AR

5:48 PM CDT on May 26, 2017 (GMT -0500)
Boone County

Weather History for KHRO - May, 2013

Change the Weather History Date:

Wednesday, May 8, 2013

  Actual Average Record
Temperature  
Mean Temperature 67 °F 64 °F  
Max Temperature 80 °F 74 °F 94 °F (1918)
Min Temperature 53 °F 54 °F 32 °F (1917)
Degree Days  
Heating Degree Days 0 3  
Month to date heating degree days 98 31  
Since 1 July heating degree days 3934 3952  
Cooling Degree Days 2 2  
Month to date cooling degree days 5 16  
Year to date cooling degree days 37 53  
Growing Degree Days 16 (Base 50)    
Moisture  
Dew Point 53 °F    
Average Humidity 66    
Maximum Humidity 93    
Minimum Humidity 38    
Precipitation  
Precipitation 0.01 in 0.16 in 2.17 in (1929)
Month to date precipitation 1.55 1.35  
Year to date precipitation 14.89 14.66  
Snow  
Snow 0.00 in 0.00 in - ()
Month to date snowfall 0.1 0.0  
Since 1 July snowfall 4.7 11.5  
Snow Depth 0.00 in    
Sea Level Pressure  
Sea Level Pressure 30.00 in    
Wind  
Wind Speed 5 mph (SE)    
Max Wind Speed 17 mph    
Max Gust Speed 23 mph    
Visibility 10 miles    
Events      
T = Trace of Precipitation, MM = Missing Value Source: NWS Daily Summary

Daily Weather History Graph

Daily Weather History Graph

Search for Another Location

Airport or City:

Trip Planner

Search our weather history database for the weather conditions in past years. The results will help you decide how hot, cold, wet, or windy it might be!

Date:

Astronomy

May. 08, 2013 Rise Set
Actual Time 6:12 AM CDT 8:06 PM CDT
Civil Twilight 5:44 AM CDT 8:34 PM CDT
Nautical Twilight 5:09 AM CDT 9:08 PM CDT
Astronomical Twilight 4:33 AM CDT 9:45 PM CDT
Moon 5:18 AM CDT (5/8) 7:06 PM CDT (5/8)
Length of Visible Light 14h 50m
Length of Day
13h 54m
Waning Crescent, 2% of the Moon is Illuminated
May 8
Waning Crescent
May 9
New
May 17
First Quarter
May 24
Full
May 31
Last Quarter

Hourly Weather History & Observations

Time (CDT) Temp. Dew Point Humidity Pressure Visibility Wind Dir Wind Speed Gust Speed Precip Events Conditions
12:53 AM 55.9 °F 51.1 °F 84% 30.01 in 10.0 mi Calm Calm - N/A   Clear
1:53 AM 55.0 °F 51.1 °F 86% 30.01 in 10.0 mi Calm Calm - N/A   Clear
2:53 AM 54.0 °F 51.1 °F 90% 30.01 in 10.0 mi ESE 4.6 mph - N/A   Clear
3:53 AM 55.0 °F 51.1 °F 86% 30.00 in 10.0 mi Calm Calm - N/A   Clear
4:53 AM 55.0 °F 51.1 °F 86% 29.99 in 10.0 mi SSE 6.9 mph - N/A   Clear
5:53 AM 55.9 °F 51.1 °F 84% 29.99 in 10.0 mi Calm Calm - N/A   Clear
6:53 AM 59.0 °F 52.0 °F 78% 30.01 in 10.0 mi Calm Calm - N/A   Clear
7:53 AM 57.9 °F 54.0 °F 87% 30.03 in 10.0 mi ESE 3.5 mph - N/A   Mostly Cloudy
8:53 AM 66.9 °F 55.0 °F 66% 30.04 in 10.0 mi SSE 5.8 mph - N/A   Overcast
9:53 AM 70.0 °F 54.0 °F 57% 30.05 in 10.0 mi SE 4.6 mph - N/A   Partly Cloudy
10:53 AM 73.9 °F 53.1 °F 48% 30.06 in 10.0 mi South 8.1 mph - N/A   Scattered Clouds
11:53 AM 75.9 °F 53.1 °F 45% 30.05 in 10.0 mi SSE 11.5 mph - N/A   Clear
12:53 PM 79.0 °F 54.0 °F 42% 30.03 in 10.0 mi SE 8.1 mph 17.3 mph N/A   Clear
1:53 PM 75.0 °F 48.9 °F 40% 30.04 in 10.0 mi SE 5.8 mph - N/A   Overcast
2:53 PM 72.0 °F 55.9 °F 57% 30.03 in 10.0 mi East 6.9 mph - 0.01 in   Overcast
3:53 PM 78.1 °F 53.1 °F 42% 29.98 in 10.0 mi SSE 8.1 mph - N/A   Clear
4:53 PM 79.0 °F 52.0 °F 39% 29.95 in 10.0 mi SSE 10.4 mph - N/A   Clear
5:53 PM 79.0 °F 52.0 °F 39% 29.94 in 10.0 mi SSE 12.7 mph - N/A   Clear
6:53 PM 75.9 °F 53.1 °F 45% 29.94 in 10.0 mi South 9.2 mph - N/A   Clear
7:53 PM 71.1 °F 54.0 °F 55% 29.94 in 10.0 mi SSE 8.1 mph - N/A   Clear
8:53 PM 68.0 °F 53.1 °F 59% 29.94 in 10.0 mi South 3.5 mph - N/A   Clear
9:53 PM 66.0 °F 54.0 °F 65% 29.94 in 10.0 mi SE 5.8 mph - N/A   Clear
10:53 PM 66.0 °F 54.0 °F 65% 29.96 in 10.0 mi Calm Calm - N/A   Clear
11:53 PM 64.0 °F 55.0 °F 73% 29.96 in 10.0 mi Calm Calm - N/A   Clear